Погода в Келлеровке

Казахстан     53°50′21″N   69°17′49″E
темп.,
°C
ветер,
м/с
пор.,
м/с
влажн.,
%
обл.,
%
осадки,
мм/ч
давл.,
гПа
погр.,
м
25 февраля, чт
чт2500:00−28ююз339385 0.0 100919
03:00−30юз239547 0.0 101019
06:00−30зсз349853 0.0 101224
09:00−29з469860 0.0 1014110
12:00−21сз699480 0.1 1017667
15:00−21сз71091100 0.1 1020796
18:00−24зсз71193100 0.2 1024561
21:00−29з5109661 0.0 1028184
26 февраля, пт
пт2600:00−29з5109756 0.0 1030194
03:00−29зюз51096100 0.0 1031208
06:00−30зюз5109699 0.0 1033191
09:00−30зюз499695 0.0 1034203
12:00−26зюз479592 0.1 1034261
15:00−23зюз469260 0.0 1034329
18:00−24юз349242 0.0 103454
21:00−27юз45910 0.0 103571
27 февраля, сб
сб2700:00−29ююз44920 0.0 103559
03:00−30ююз34920 0.0 103447
06:00−30ю45910 0.0 103367
09:00−29ю44900 0.0 103269
12:00−23ю47890 0.0 1030239
15:00−17ю59870 0.0 1028357
18:00−16ююв6128818 0.0 1025335
21:00−13ю71493100 0.4 1019693
28 февраля, вс
вс2800:00−11ю81493100 1.4 1016753
03:00−10ю81593100 1.6 1012800
06:00−8ю61489100 2.4 1008712
09:00−6ю5149298 0.1 1006581
12:00−2ююз7128898 0.3 1004547
15:00+1юз51091100 0.0 1003753
18:000ююз3898100 0.2 1003310
21:00−2юз41092100 0.1 1003314
1 марта, пн
пн100:00−3юз5119199 0.2 1004355
03:00−4юз51192100 0.0 1004321
06:00−3юз61194100 0.1 1005429
09:00−3зюз61193100 0.1 1006502
12:00−8сз5795100 0.4 1008295
15:00−11зсз589399 0.2 1011392
18:00−14зсз5993100 0.3 1014394
21:00−19з5997100 0.0 1017173